Location: Brienzwiler
(46.7508°N, 8.1014°E)
Time: 01:32:19
(UTC+00:00)

MOS 1-B Rocket - Pass Details

Date: 05 July 2020
Orbit: 890 x 1606 km, 99.1° (Epoch: 11 August)

Event Time Altitude Azimuth Distance (km) Brightness Sun altitude
Rises 22:34:35 0° 14° (NNE) 4,471 8.5 -19.4°
Reaches altitude 10° 22:37:32 10° 14° (NNE) 3,397 7.7 -19.5°
Maximum altitude 22:45:20 85° 288° (WNW) 1,196 4.4 -19.8°
Enters shadow 22:49:22 27° 201° (SSW) 1,987 5.1 -19.9°
